Regional Weather Roundup
Issued by NWS

Home | Current Version | Previous Version | Graphics & Text | Print | Product List | Glossary On
Versions: 1 2 3 4 5 6 7 8 9 10 11 12 13 14 15 16 17 18 19 20 21 22 23 24 25 26 27 28 29 30 31 32 33 34 35 36 37 38 39 40 41 42 43 44 45 46 47 48 49 50
000
ASUS43 KIND 081759
RWRIN

WEATHER ROUNDUP FOR INDIANA
NATIONAL WEATHER SERVICE INDIANAPOLIS IN
100 PM EST THU DEC 08 2016

NOTE: "FAIR" INDICATES FEW OR NO CLOUDS BELOW 12,000 FEET WITH NO
SIGNIFICANT WEATHER AND/OR OBSTRUCTIONS TO VISIBILITY.

* - STATION DOES NOT REPORT WEATHER SUCH AS PRECIPITATION OR FOG.

+ - STATION NOT QUALITY CONTROLLED BY THE NATIONAL WEATHER SERVICE.
    USE DATA WITH CAUTION...ESPECIALLY DEWPOINT AND RELATIVE
    HUMIDITY OBSERVATIONS.

INZ001>003-010>013-019-020-081900-
NORTHWEST INDIANA

CITY           SKY/WX    TMP DP  RH WIND       PRES   REMARKS
GARY /AIRPORT/ CLOUDY    21  12  68 W14G39    30.30S WCI   8

$$

LMZ046-743>745-081900-
SOUTHERN LAKE MICHIGAN

STATION/POSITION TIME  TEMP    WIND        PRES    WAVE
                       AIR SEA DIR/SP/G            HT
                 (UTC) (F)     (DEG/KT/KT) (MB)    (FT)

$$

INZ004-005-014>016-021>024-081900-
NORTH CENTRAL INDIANA

CITY           SKY/WX    TMP DP  RH WIND       PRES   REMARKS
ELKHART        LGT SNOW  21  16  79 W13G22    30.21S WCI   9
GOSHEN         FLURRIES  21  12  68 W20G26    30.21S WCI   6
6HR MIN TEMP:  21; 6HR MAX TEMP:  23; 6HR PCP: TRACE;

SOUTH BEND     LGT SNOW  19  13  77 W20G28    30.22F WCI   3
6HR MIN TEMP:  19; 6HR MAX TEMP:  21; 6HR PCP: TRACE;


$$

INZ006>009-017-018-025>027-081900-
NORTHEAST INDIANA

CITY           SKY/WX    TMP DP  RH WIND       PRES   REMARKS
ANGOLA *+      CLOUDY    21  16  79 W13       30.16R WCI   9
FORT WAYNE     FLURRIES  23  14  68 W23G29    30.22F WCI   7
6HR MIN TEMP:  22; 6HR MAX TEMP:  24; 6HR PCP: TRACE;

KENDALLVILLE + FLURRIES  21  14  73 W20G26    30.19R WCI   6

$$

INZ028-029-035-036-043>045-051>053-081900-
WEST CENTRAL INDIANA

CITY           SKY/WX    TMP DP  RH WIND       PRES   REMARKS
CRAWFORDSVL +  CLOUDY    22  14  70 W22       30.33F WCI   6
6HR MIN TEMP:  18; 6HR MAX TEMP:  22;

GREENCASTLE +  CLOUDY    21  16  79 W8        30.36S WCI  12
LAFAYETTE      FLURRIES  22  14  71 W23G30    30.32F WCI   6
6HR MIN TEMP:  20; 6HR MAX TEMP:  22; 6HR PCP: TRACE;

TERRE HAUTE    CLOUDY    23  13  65 W18G25    30.40F WCI   9
6HR MIN TEMP:  22; 6HR MAX TEMP:  24; 6HR PCP: TRACE;


$$

INZ030>032-037>040-046>048-054>057-064-065-081900-
CENTRAL INDIANA

CITY           SKY/WX    TMP DP  RH WIND       PRES   REMARKS
COLUMBUS       PTSUNNY   27  18  69 W14G21    30.34F WCI  15
INDIANAPOLIS   FLURRIES  23  13  65 W18       30.33F WCI   9
6HR MIN TEMP:  20; 6HR MAX TEMP:  23; 6HR PCP: TRACE;

-EAGLE CREEK   CLOUDY    23  13  65 W16G24    30.32F WCI  10
6HR MIN TEMP:  21; 6HR MAX TEMP:  23; 6HR PCP: TRACE;

KOKOMO +       FLURRIES  22  15  75 W25G31    30.28S WCI   5
6HR MIN TEMP:  21; 6HR MAX TEMP:  23; 6HR PCP: TRACE;

SHELBYVILLE    CLOUDY    24  14  65 W18G25    30.32S WCI  10
6HR MIN TEMP:  22; 6HR MAX TEMP:  24; 6HR PCP: TRACE;


$$

INZ033-034-041-042-049-050-058-059-081900-
EAST CENTRAL INDIANA

CITY           SKY/WX    TMP DP  RH WIND       PRES   REMARKS
MUNCIE         CLOUDY    24  14  65 W21G26    30.26F WCI   9
6HR MIN TEMP:  22; 6HR MAX TEMP:  24; 6HR PCP: TRACE;


$$

INZ060-061-067>069-081>083-085>088-081900-
SOUTHWEST INDIANA

CITY           SKY/WX    TMP DP  RH WIND       PRES   REMARKS
EVANSVILLE     SUNNY     33  15  47 NW8G21    30.44F WCI  26
6HR MIN TEMP:  25; 6HR MAX TEMP:  33;

HUNTINGBURG *+ SUNNY     31  17  56 W14       30.41F WCI  21
6HR MIN TEMP:  24; 6HR MAX TEMP:  31;


$$

INZ062-063-066-070>080-084-089>092-081900-
SOUTH CENTRAL AND SOUTHEAST INDIANA

CITY           SKY/WX    TMP DP  RH WIND       PRES   REMARKS
BLOOMINGTON    CLOUDY    25  14  63 W16G22    30.35F WCI  12
6HR MIN TEMP:  21; 6HR MAX TEMP:  27;

MADISON *+     SUNNY     32  14  47 W14G20    30.33F WCI  22
SEYMOUR +      MOSUNNY   34  18  51 W17G23    30.35F WCI  23

$$





USA.gov is the U.S. government's official web portal to all federal, state and local government web resources and services.